Regional Weather Roundup
Issued by NWS

Current Version | Previous Version | Text Only | Print | Product List | Glossary On
Versions: 1 2 3 4 5 6 7 8 9 10 11 12 13 14 15 16 17 18 19 20 21 22 23 24 25 26 27 28 29 30 31 32 33 34 35 36 37 38 39 40 41 42 43 44 45 46 47 48 49 50
000
ASCA44 KEWX 251820
RWRMX

LATIN AMERICA AND CARIBBEAN REGIONAL WEATHER ROUNDUP
NATIONAL WEATHER SERVICE AUSTIN/SAN ANTONIO TX
1200 PM CST SAT FEB 25 2017

NOTE: "FAIR" INDICATED FEW OR NO CLOUDS BELOW 12,000 FEET WITH NO
SIGNIFICANT WEATHER AND/OR OBSTRUCTIONS TO VISIBILITY.

BAJA CALIFORNIA

CITY           SKY/WX    TMP DP  RH WIND       PRES   REMARKS
LORETO         SUNNY     68  52  56 NE14      30.02F
LA PAZ         SUNNY     72  43  35 NW10      30.04R
MEXICALI       SUNNY     63  23  22 S2        30.11S
S.J. DEL CABO  SUNNY     82  23  11 NW7       29.97F
TIJUANA        SUNNY     57  32  38 CALM      30.14F

NORTHWESTERN MEXICO

CITY           SKY/WX    TMP DP  RH WIND       PRES   REMARKS
CULIACAN       SUNNY     73  55  53 CALM      29.93S
DURANGO        SUNNY     64   7  10 N6        30.20F
GUAYMAS        SUNNY     75  32  20 N14       29.97F
HERMOSILLO     SUNNY     70  37  30 CALM      30.07F
CD. JUAREZ     SUNNY     57  19  23 S6        30.04F
LOS MOCHIS     SUNNY     72  43  35 N21       29.99S
OBREGON        SUNNY     75  32  20 NW10      29.96S

NORTHEASTERN MEXICO

CITY           SKY/WX    TMP DP  RH WIND       PRES   REMARKS
CHIHUAHUA      SUNNY     63  10  13 CALM      30.14F
MATAMOROS      PTSUNNY   73  57  56 NE13      30.08S
MONCLOVA       MOSUNNY   63  34  34 E6        30.11F
MONTERREY      CLOUDY    64  46  52 S7        30.11F
NUEVO LAREDO   SUNNY     63  32  31 E10       30.16F
PIEDRAS NEGRAS   N/A    N/A N/A N/A MISG        N/A
REYNOSA        PTSUNNY   72  50  46 NE14      30.09F
SALTILLO       SUNNY     68  48  49 N8        30.17F
TORREON        SUNNY     72   9   8 CALM      30.10F
CD. VICTORIA   PTSUNNY   79  57  47 NE5       30.07F

WESTERN MEXICO

CITY           SKY/WX    TMP DP  RH WIND       PRES   REMARKS
AGUASCALIENTES SUNNY     70  14  11 S6        30.23F
COLIMA         SUNNY     81  54  39 W9        29.99F
DEL BAJIO      SUNNY     72  32  23 CALM      30.26F
GUADALAJARA    SUNNY     73  25  16 N7        30.16F
MANZANILLO     MOSUNNY   77  72  83 SE12      29.89F
MAZATLAN       SUNNY     73  64  73 S7        29.94S
P. VALLARTA    SUNNY     77  59  53 SW7       29.90F
URUAPAN        SUNNY     73  43  33 S9        30.17F
ZACATECAS      SUNNY     70  23  17 S12       30.23F

CENTRAL MEXICO

CITY           SKY/WX    TMP DP  RH WIND       PRES   REMARKS
CUERNAVACA     SUNNY     79  39  24 CALM      30.11F
MEXICO CITY    SUNNY     68  28  22 E6        30.28F
MORELIA        SUNNY     73  34  23 N8        30.21F
POZA RICA      MOSUNNY   84  66  54 NE7       30.04F
PUEBLA           N/A    N/A N/A N/A MISG        N/A
QUERETARO      SUNNY     70  36  28 SE6       30.26F
S. LUIS POTOSI SUNNY     70  28  21 S5        30.20F
TAMPICO        MOSUNNY   81  66  61 E9        30.02S
TOLUCA         SUNNY     66  25  20 NW3       30.33

SOUTHERN MEXICO

CITY           SKY/WX    TMP DP  RH WIND       PRES   REMARKS
ACAPULCO       SUNNY     82  68  61 S5        29.92F
B. DE HUATULCO MOSUNNY   86  73  66 S12       29.99F HX  93
OAXACA         MOSUNNY   79  39  24 CALM      30.17F
P. ESCONDIDO   MOSUNNY   79  70  73 SW12      30.04S
VERACRUZ       MOSUNNY   82  68  61 NE21      29.96S
ZIHUATANEJO    SUNNY     88  64  45 SW5       29.93F

YUCATAN PENINSULA

CITY           SKY/WX    TMP DP  RH WIND       PRES   REMARKS
CAMPECHE       SUNNY     90  66  45 S12       29.86F HX  92
CANCUN         SUNNY     82  66  57 E15       29.92F
CHETUMAL       MOSUNNY   84  72  65 SE14      29.91F
CD. DEL CARMEN SUNNY     84  68  58 N10       29.90F
COZUMEL        SUNNY     86  66  51 E8        29.91F
MERIDA         SUNNY     91  63  38 S9        29.89F HX  92
MINATITLAN     PTSUNNY   82  72  69 CALM      29.92F
TAPACHULA      MOSUNNY   90  66  45 NW7       29.90F HX  92
TUX. GUTIERREZ SUNNY     84  54  34 NE2       29.94F
VILLAHERMOSA   SUNNY     88  63  42 SW8       29.93F

CENTRAL AMERICA

CITY           SKY/WX    TMP DP  RH WIND       PRES   REMARKS
BELIZE CITY    MOSUNNY   86  75  70 SE6       29.88F HX  95
MANAGUA        PTCLDY    88  70  55 N12       29.86F HX  92

CARIBBEAN

CITY           SKY/WX    TMP DP  RH WIND       PRES   REMARKS
ARUBA          MOSUNNY   88  75  66 E16       29.89F HX  97
KINGSTON       MOSUNNY   84  70  61 S10       29.92F
NASSAU         MOSUNNY  N/A N/A N/A SW6       29.94F
SAN JUAN       MOSUNNY   84  73  70 NE15      29.98F HX  91
SANTO DOMINGO  MOSUNNY   86  72  62 S6        29.94F HX  92
ST. CROIX      MOSUNNY   84  70  61 SE9       30.00
ST. KITTS      MOSUNNY   82  70  65 E13       29.97F
ST. MAARTEN    MOSUNNY   82  68  61 SE10      30.00S
ST. THOMAS     MOSUNNY   82  72  69 SE15      29.98

$$





USA.gov is the U.S. government's official web portal to all federal, state and local government web resources and services.